Wind_Speed
44 45 45 45 45 46 46 46 46 47 48 48 50 51 52 52 52 53 52 53 53 53 54 54 53 54 55 55 55 56 56 57 57 56 57 58 58 58 58 59 60 61 60
44 45 46 46 46 46 47 47 48 48 48 48 48 50 51 52 53 54 53 53 53 53 54 55 55 56 56 57 57 57 57 58 58 58 58 59 59 60 60 60 61 61 61
44 45 46 46 47 47 48 49 49 49 49 49 49 49 51 52 53 54 54 54 54 54 55 55 56 57 58 58 58 58 58 59 59 59 59 60 60 61 61 61 61 62 61
44 45 46 47 47 48 49 49 50 50 51 51 51 51 51 52 53 54 55 55 55 56 56 57 57 58 59 58 58 58 59 60 60 60 59 59 60 61 62 62 62 63 63
45 45 45 46 47 48 49 49 50 50 52 52 53 53 52 52 52 53 55 55 55 56 56 57 58 58 58 58 58 58 59 60 61 61 61 61 61 62 63 63 63 63 63
44 45 45 46 47 48 49 50 50 51 52 52 53 53 54 54 53 54 55 56 56 57 56 57 58 57 58 58 58 58 59 60 61 62 62 62 63 63 63 63 63 63 62
43 45 45 46 47 49 50 50 51 51 52 53 53 53 53 54 55 55 55 57 57 58 58 57 57 58 58 58 58 58 59 60 60 61 61 61 62 62 62 63 63 63 63
44 45 46 46 47 48 49 50 51 52 53 54 54 54 54 55 56 56 56 57 58 58 59 59 58 58 58 59 59 59 59 59 60 61 61 61 62 62 62 63 63 63 63
44 45 46 46 47 48 49 50 51 52 53 54 55 55 56 56 57 58 58 57 58 58 59 59 59 58 57 58 59 59 59 59 60 61 61 62 62 62 62 63 62 63 62
45 45 46 47 48 49 50 51 52 52 53 54 54 55 56 56 57 58 59 58 58 59 59 59 59 58 58 58 59 59 59 60 60 61 62 62 61 62 62 63 63 63 63
46 47 48 48 49 50 51 52 52 53 54 54 54 55 55 56 56 57 58 58 58 58 58 58 58 58 59 59 60 60 60 60 61 61 61 61 61 62 62 62 63 63 62
48 48 49 50 50 51 51 52 53 53 54 54 55 55 55 56 56 56 56 56 57 57 57 58 58 58 59 60 61 61 61 61 61 61 62 61 61 61 61 61 61 62 62
49 50 50 50 51 51 52 52 53 53 54 54 55 55 55 55 55 55 55 55 56 57 57 57 58 58 59 60 61 62 62 62 62 61 61 61 61 61 61 61 61 61 61
50 50 50 50 51 51 52 52 53 54 54 54 54 55 55 54 54 54 55 56 56 57 57 58 58 58 59 60 60 60 61 61 61 61 61 60 60 60 60 60 60 60 60
50 50 50 51 51 51 52 53 53 54 55 54 54 54 54 54 54 55 55 56 56 56 56 56 56 57 57 57 58 58 58 59 59 59 59 59 59 59 59 59 59 59 59
49 50 50 50 51 52 52 53 53 54 54 55 54 54 54 54 54 55 55 55 55 55 55 55 55 55 56 55 55 56 56 57 57 57 57 57 57 56 56 56 57 57 56
49 49 50 50 51 51 52 52 53 53 54 54 54 54 54 54 53 53 54 54 54 54 54 54 54 54 54 53 53 54 54 54 54 54 54 54 54 54 53 54 54 54 53
48 49 49 50 51 51 52 52 53 52 52 52 52 52 52 52 52 52 53 53 53 53 52 52 51 52 52 51 51 51 50 50 50 50 50 50 50 50 50 50 50 50 50
48 49 50 50 50 50 51 52 52 52 51 51 50 51 51 51 51 51 51 51 50 50 49 49 49 49 49 49 49 48 48 47 47 46 46 45 45 46 46 46 46 46 47
49 49 50 50 50 50 50 50 51 51 50 50 49 49 49 49 48 48 48 47 47 47 47 47 47 47 46 46 46 46 45 45 44 44 43 43 43 43 44 44 44 44 44
48 48 48 48 49 49 48 48 49 49 49 49 47 47 46 46 46 45 45 45 45 45 44 44 44 45 45 44 44 43 43 43 43 43 42 42 41 42 42 42 42 43 43
46 46 46 47 47 47 47 47 47 47 47 46 46 45 45 44 44 43 43 43 43 43 43 42 43 43 42 42 42 42 42 42 41 41 41 41 41 41 41 41 41 41 41
45 45 45 45 45 45 45 45 44 44 43 43 43 43 42 42 41 41 42 41 41 41 41 41 41 41 41 41 41 41 40 40 40 40 40 40 40 41 40 40 39 39 39
45 45 45 44 44 44 43 43 42 41 41 40 40 40 40 40 40 40 40 39 40 40 39 39 39 39 39 39 40 40 40 39 39 39 39 39 39 39 39 39 38 38 37
44 44 43 43 43 42 41 40 40 39 39 38 38 37 37 37 37 37 37 37 38 38 38 37 37 36 36 37 37 37 37 37 37 37 37 37 37 37 37 37 36 36 36
42 42 41 41 41 40 40 39 38 38 37 37 36 36 36 35 35 35 35 36 36 36 36 36 36 36 35 36 36 36 36 36 36 36 36 35 35 35 35 35 35 35 35
Wind_Direction
264 264 264 263 264 265 266 265 265 265 266 266 266 266 266 266 266 266 267 266 266 266 266 264 263 263 262 261 262 263 263 263 263 264 264 265 266 267 267 266 267 266 266
265 266 266 265 266 267 267 267 267 267 268 267 267 267 266 265 265 266 266 266 266 266 266 265 264 263 262 262 263 264 263 263 264 264 265 266 266 266 267 266 266 266 266
266 267 267 267 267 267 267 268 268 268 268 268 268 267 267 266 266 265 265 265 265 266 266 266 265 263 263 263 265 265 264 265 265 265 266 266 266 266 266 266 266 266 266
267 268 268 268 268 268 268 268 268 269 269 269 269 269 269 268 267 266 266 266 266 267 267 267 266 264 264 264 266 265 265 265 266 266 267 267 267 267 267 267 266 266 266
270 270 270 269 269 268 268 269 269 270 270 269 269 269 269 269 269 268 268 268 268 268 268 268 267 266 265 265 267 267 266 266 267 267 268 269 268 268 267 267 266 266 266
271 271 271 271 271 270 270 270 270 271 271 271 270 270 270 270 270 269 269 268 268 268 269 268 267 266 266 266 268 268 268 268 268 269 269 269 269 269 268 267 267 266 266
273 272 272 272 271 271 270 271 271 272 272 272 271 271 271 271 270 270 270 269 269 268 268 268 267 267 266 267 268 268 268 268 269 269 269 270 269 269 268 268 267 267 267
275 274 274 273 272 272 272 273 273 273 273 273 272 272 272 271 271 270 271 270 269 269 268 268 268 268 268 269 268 269 269 269 269 269 270 270 269 269 268 268 268 268 268
276 276 275 274 274 273 274 274 274 275 275 275 274 273 273 272 272 272 272 272 270 269 268 268 268 268 269 270 269 269 269 269 269 270 270 270 269 269 268 268 268 268 268
277 277 276 276 275 275 275 275 276 276 276 276 275 275 274 273 273 272 272 272 271 270 268 267 267 268 270 270 269 269 270 270 270 270 270 270 269 269 268 268 269 269 268
278 278 278 278 277 276 276 276 276 276 276 276 276 276 275 274 273 273 273 272 272 271 269 267 266 268 269 270 269 270 270 270 270 270 269 269 269 269 269 269 269 269 268
279 279 279 279 279 278 277 277 277 277 277 277 276 276 275 275 275 274 273 273 272 270 269 268 267 268 270 270 270 270 270 270 270 269 269 269 269 269 269 269 269 269 268
280 280 280 280 279 279 278 278 278 278 278 278 277 276 275 275 275 274 273 272 271 271 269 269 268 268 269 270 270 270 270 270 269 269 269 268 268 268 268 269 269 268 268
280 280 280 280 280 280 279 279 279 279 279 279 278 277 276 275 274 274 273 273 272 272 271 270 269 270 270 270 269 270 270 270 269 269 269 269 269 268 268 268 268 268 268
281 281 280 280 280 280 279 279 279 280 280 279 278 277 276 275 274 274 274 274 273 272 271 270 270 271 270 270 269 269 269 269 269 269 269 269 269 268 268 267 267 267 267
283 282 281 281 281 280 280 280 280 280 280 280 279 278 277 277 276 275 275 274 273 271 270 271 271 271 271 270 270 270 270 270 270 270 270 269 269 268 268 267 267 267 266
284 283 283 282 282 282 281 281 280 280 280 280 279 279 278 278 277 276 275 274 273 271 270 271 272 272 271 271 271 271 270 270 270 270 269 269 268 268 267 267 266 266 266
285 285 285 285 283 283 282 282 281 281 281 280 279 278 278 277 277 276 275 274 273 271 271 272 272 272 272 271 270 270 270 270 270 270 269 268 267 267 267 266 266 266 266
287 287 287 286 285 284 284 283 283 282 282 281 279 278 277 276 276 275 274 273 272 270 271 272 272 272 271 270 270 269 270 270 270 270 269 267 266 266 266 266 266 266 266
289 289 288 287 287 286 285 284 283 282 282 281 280 278 276 276 275 274 273 271 270 270 270 271 272 272 271 270 269 268 269 269 269 269 268 267 266 265 266 266 266 266 267
291 291 289 289 288 287 286 285 284 283 282 281 279 278 276 275 274 273 272 270 270 270 270 271 272 272 271 270 269 268 268 268 268 268 267 267 266 265 265 265 266 266 267
293 293 292 291 290 289 288 286 285 284 282 281 279 278 276 275 274 273 271 270 270 270 271 272 272 270 269 268 268 268 267 267 268 267 267 266 265 265 265 265 265 266 266
294 293 293 293 292 290 289 288 286 284 283 282 280 278 277 275 274 273 271 270 270 270 270 270 270 270 268 267 267 267 266 266 266 266 266 265 265 265 265 265 265 265 265
294 294 293 293 292 292 290 289 287 285 283 282 281 279 277 275 273 272 271 269 269 269 269 270 269 269 268 268 267 266 266 265 265 265 265 265 265 264 264 264 264 264 265
295 294 294 293 293 292 291 289 287 286 284 282 281 280 278 276 274 272 271 271 270 270 269 270 269 269 269 268 267 266 265 265 265 265 264 264 264 263 262 262 263 264 265
296 295 294 294 293 292 291 290 288 286 284 282 281 280 279 277 275 273 272 271 271 271 270 269 269 270 270 269 268 267 266 266 265 264 264 264 263 262 261 261 262 264 264
Height
5603 5604 5604 5604 5605 5605 5605 5605 5606 5606 5606 5606 5606 5607 5607 5608 5609 5610 5611 5611 5612 5613 5614 5615 5615 5616 5618 5619 5620 5622 5623 5625 5627 5629 5630 5631 5632 5633 5634 5635 5636 5637 5639
5591 5591 5591 5591 5592 5592 5592 5592 5592 5592 5592 5592 5592 5593 5593 5594 5594 5595 5596 5597 5597 5598 5599 5599 5600 5601 5602 5603 5605 5606 5607 5608 5610 5612 5613 5614 5616 5617 5618 5619 5619 5620 5622
5578 5578 5578 5578 5578 5578 5579 5579 5578 5578 5578 5579 5579 5578 5579 5579 5580 5580 5581 5581 5582 5583 5583 5584 5584 5585 5586 5587 5588 5589 5591 5592 5593 5594 5596 5597 5598 5599 5600 5601 5602 5603 5604
5565 5565 5565 5565 5565 5565 5565 5565 5565 5564 5564 5565 5564 5564 5564 5564 5565 5565 5565 5566 5566 5567 5567 5567 5568 5568 5569 5570 5571 5572 5574 5575 5576 5577 5578 5579 5580 5581 5582 5583 5584 5585 5586
5552 5551 5551 5551 5550 5551 5551 5551 5550 5550 5550 5549 5549 5549 5549 5549 5549 5549 5549 5549 5550 5551 5551 5551 5551 5552 5552 5553 5554 5555 5556 5557 5558 5559 5560 5561 5562 5563 5564 5564 5565 5566 5567
5538 5538 5538 5537 5537 5537 5537 5536 5536 5536 5535 5534 5534 5534 5534 5533 5533 5533 5533 5533 5533 5534 5534 5534 5534 5535 5535 5536 5537 5537 5538 5539 5540 5541 5542 5543 5543 5544 5545 5545 5546 5547 5550
5526 5525 5524 5524 5523 5523 5522 5522 5522 5521 5520 5519 5519 5518 5518 5517 5517 5516 5516 5516 5517 5517 5517 5517 5518 5518 5518 5519 5519 5520 5520 5521 5521 5522 5523 5524 5525 5526 5526 5527 5527 5528 5531
5513 5512 5511 5510 5509 5508 5508 5507 5507 5506 5505 5504 5503 5502 5502 5501 5500 5500 5499 5499 5499 5500 5500 5500 5500 5501 5501 5501 5502 5502 5503 5503 5503 5504 5505 5506 5505 5506 5506 5507 5508 5509 5511
5500 5499 5497 5496 5495 5494 5493 5492 5491 5490 5489 5488 5487 5486 5485 5484 5483 5482 5481 5481 5482 5482 5482 5482 5483 5483 5484 5483 5484 5485 5485 5485 5485 5485 5486 5486 5486 5487 5487 5487 5488 5489 5492
5486 5485 5483 5482 5480 5479 5478 5477 5475 5474 5473 5472 5471 5469 5468 5467 5466 5465 5464 5464 5464 5464 5464 5464 5465 5465 5465 5464 5465 5466 5467 5467 5467 5467 5467 5467 5467 5468 5468 5468 5469 5470 5472
5472 5470 5469 5467 5465 5464 5462 5461 5459 5458 5457 5456 5455 5453 5452 5450 5449 5447 5446 5445 5445 5445 5446 5446 5447 5447 5447 5446 5446 5447 5448 5448 5448 5448 5448 5448 5449 5449 5449 5450 5450 5451 5452
5458 5456 5454 5452 5450 5448 5447 5445 5443 5442 5440 5439 5437 5436 5434 5433 5431 5430 5428 5427 5427 5427 5428 5428 5429 5429 5428 5428 5428 5428 5428 5428 5428 5428 5429 5429 5430 5431 5431 5431 5431 5432 5433
5443 5441 5439 5437 5434 5432 5430 5429 5427 5425 5423 5422 5420 5419 5418 5416 5414 5412 5411 5409 5409 5408 5409 5409 5410 5410 5409 5409 5409 5409 5409 5409 5409 5409 5410 5411 5411 5411 5411 5411 5412 5413 5414
5428 5426 5424 5422 5419 5417 5414 5413 5411 5409 5407 5405 5403 5402 5400 5399 5397 5395 5393 5392 5391 5390 5390 5391 5391 5391 5390 5390 5390 5389 5389 5389 5389 5390 5391 5391 5391 5392 5392 5393 5394 5394 5395
5413 5410 5408 5406 5404 5401 5399 5396 5394 5392 5389 5388 5386 5384 5382 5381 5379 5377 5375 5374 5373 5373 5372 5372 5372 5371 5371 5371 5371 5370 5370 5370 5370 5370 5371 5372 5372 5373 5373 5374 5375 5375 5377
5397 5395 5392 5390 5387 5385 5383 5380 5377 5375 5372 5369 5367 5366 5364 5363 5361 5359 5358 5356 5355 5354 5353 5353 5353 5353 5353 5353 5353 5352 5352 5352 5352 5352 5352 5353 5354 5354 5355 5356 5357 5357 5359
5381 5378 5376 5373 5371 5368 5366 5363 5361 5359 5355 5352 5350 5348 5346 5345 5343 5341 5340 5338 5337 5336 5335 5336 5336 5335 5335 5335 5335 5335 5335 5335 5334 5335 5335 5336 5336 5337 5338 5338 5339 5340 5341
5365 5362 5359 5356 5354 5351 5349 5346 5344 5341 5339 5336 5334 5331 5329 5327 5325 5324 5322 5321 5320 5319 5318 5318 5318 5318 5317 5317 5317 5317 5318 5318 5318 5318 5319 5319 5320 5321 5321 5322 5323 5324 5325
5350 5346 5343 5340 5337 5334 5332 5329 5326 5324 5321 5319 5317 5314 5312 5310 5308 5306 5304 5303 5303 5302 5302 5301 5301 5301 5301 5301 5301 5301 5302 5302 5302 5303 5303 5304 5304 5305 5306 5307 5308 5309 5310
5334 5330 5327 5324 5320 5318 5315 5312 5309 5306 5304 5301 5299 5297 5295 5293 5291 5290 5288 5287 5286 5286 5286 5286 5285 5285 5285 5285 5286 5286 5287 5287 5288 5288 5289 5290 5290 5291 5292 5293 5294 5295 5295
5319 5315 5311 5307 5304 5301 5298 5295 5292 5289 5287 5284 5282 5280 5278 5276 5275 5274 5273 5272 5271 5271 5271 5271 5271 5271 5271 5271 5271 5272 5273 5273 5274 5274 5275 5276 5277 5277 5278 5279 5280 5281 5281
5304 5300 5296 5292 5289 5285 5282 5279 5276 5273 5271 5268 5266 5264 5262 5260 5259 5258 5258 5258 5257 5257 5257 5257 5257 5256 5256 5257 5257 5258 5259 5259 5260 5261 5261 5262 5263 5264 5265 5266 5267 5267 5268
5289 5285 5281 5277 5273 5270 5267 5263 5260 5258 5255 5253 5251 5249 5247 5246 5245 5244 5244 5244 5244 5244 5243 5243 5243 5243 5243 5243 5244 5244 5245 5246 5247 5247 5248 5249 5250 5251 5252 5253 5254 5254 5255
5274 5270 5266 5263 5259 5255 5252 5249 5246 5243 5241 5239 5237 5235 5234 5233 5232 5231 5231 5230 5230 5230 5230 5230 5230 5230 5230 5230 5230 5231 5232 5232 5233 5234 5235 5236 5237 5238 5239 5240 5241 5242 5243
5260 5256 5252 5249 5245 5242 5238 5235 5232 5230 5228 5226 5224 5222 5221 5220 5219 5218 5218 5218 5217 5217 5217 5217 5217 5218 5218 5218 5218 5218 5219 5219 5220 5221 5222 5223 5224 5225 5227 5228 5229 5231 5231
5247 5243 5239 5235 5232 5228 5225 5222 5219 5217 5215 5213 5212 5210 5209 5208 5207 5206 5206 5205 5205 5205 5205 5205 5205 5206 5206 5206 5206 5206 5207 5207 5208 5209 5210 5211 5212 5214 5215 5216 5218 5219 5220